AUA4771 EKCH-EDDB

Flight info

Callsign AUA4771
Flight time N/A
Altitude 29000
Route SALLO M44 KOGIM M725 RODEP T280 KETAP
Aircraft A21N/M-SDE2E3FGHIRWXY/LB1

Departure

Time 2026-04-25 15:37
Airport Copenhagen Kastrup Airport (EKCH)

Arrival

Time N/A
Airport Berlin Brandenburg Airport (EDDB)
Time Latitude Longitude Altitude Speed Heading
2026-04-25 15:09 55.62425 12.65037 21 ft 0 kts 269°
2026-04-25 15:27 55.62425 12.65048 21 ft 1 kts 269°
2026-04-25 15:27 55.62425 12.65091 21 ft 2 kts 269°
2026-04-25 15:28 55.62426 12.65124 20 ft 3 kts 269°
2026-04-25 15:28 55.62430 12.65161 20 ft 3 kts 236°
2026-04-25 15:28 55.62445 12.65185 20 ft 1 kts 200°
2026-04-25 15:28 55.62457 12.65191 20 ft 2 kts 181°
2026-04-25 15:29 55.62474 12.65188 19 ft 2 kts 168°
2026-04-25 15:29 55.62481 12.65185 19 ft 0 kts 174°
2026-04-25 15:31 55.62458 12.65189 20 ft 6 kts 175°
2026-04-25 15:31 55.62407 12.65190 22 ft 9 kts 180°
2026-04-25 15:31 55.62334 12.65195 21 ft 12 kts 176°
2026-04-25 15:31 55.62237 12.65196 22 ft 15 kts 187°
2026-04-25 15:32 55.62151 12.65113 25 ft 15 kts 211°
2026-04-25 15:32 55.62114 12.65073 23 ft 0 kts 213°
2026-04-25 15:33 55.62113 12.65071 22 ft 2 kts 213°
2026-04-25 15:34 55.62019 12.64961 20 ft 23 kts 212°
2026-04-25 15:34 55.61867 12.64787 17 ft 28 kts 213°
2026-04-25 15:34 55.61777 12.64682 20 ft 10 kts 213°
2026-04-25 15:34 55.61757 12.64659 22 ft 11 kts 213°
2026-04-25 15:35 55.61649 12.64316 25 ft 14 kts 266°
2026-04-25 15:35 55.61641 12.64144 28 ft 15 kts 261°
2026-04-25 15:35 55.61573 12.63986 26 ft 19 kts 221°
2026-04-25 15:36 55.61366 12.63667 28 ft 14 kts 221°
2026-04-25 15:36 55.61315 12.63588 28 ft 6 kts 221°
2026-04-25 15:36 55.61275 12.63525 27 ft 27 kts 221°
2026-04-25 15:37 55.60893 12.62940 24 ft 116 kts 221°
2026-04-25 15:37 55.60120 12.61744 182 ft 165 kts 221°
2026-04-25 15:37 55.59286 12.60496 1275 ft 145 kts 220°
2026-04-25 15:37 55.58546 12.59433 2335 ft 146 kts 219°
2026-04-25 15:38 55.57572 12.58124 2342 ft 212 kts 217°
2026-04-25 15:38 55.56287 12.56239 2533 ft 259 kts 220°
2026-04-25 15:38 55.54625 12.54543 2945 ft 296 kts 204°
2026-04-25 15:38 55.52567 12.53171 3141 ft 337 kts 199°
2026-04-25 15:39 55.50209 12.51833 3294 ft 369 kts 197°
2026-04-25 15:39 55.47767 12.50503 4550 ft 367 kts 197°
2026-04-25 15:39 55.45257 12.49534 5518 ft 373 kts 184°
2026-04-25 15:39 55.42780 12.49943 6236 ft 360 kts 164°
2026-04-25 15:40 55.40587 12.51874 7303 ft 355 kts 142°
2026-04-25 15:40 55.39965 12.52832 7789 ft 350 kts 135°
2026-04-25 15:40 55.38202 12.58839 10248 ft 326 kts 98°
2026-04-25 15:40 55.38232 12.62797 11333 ft 329 kts 83°
2026-04-25 15:41 55.38466 12.66905 11868 ft 344 kts 87°
2026-04-25 15:41 55.38397 12.71133 12710 ft 348 kts 96°
2026-04-25 15:41 55.38013 12.75356 13543 ft 352 kts 102°
2026-04-25 15:41 55.37420 12.79563 14344 ft 357 kts 105°
2026-04-25 15:42 55.36722 12.83769 15127 ft 361 kts 107°
2026-04-25 15:42 55.35979 12.88013 15890 ft 365 kts 107°
2026-04-25 15:42 55.35223 12.92289 16625 ft 369 kts 107°
2026-04-25 15:42 55.34451 12.96619 17339 ft 373 kts 109°
2026-04-25 15:43 55.33257 13.00598 17997 ft 377 kts 127°
2026-04-25 15:43 55.31374 13.03799 18665 ft 380 kts 146°
2026-04-25 15:43 55.29021 13.05940 19314 ft 383 kts 160°
2026-04-25 15:43 55.26455 13.07270 19964 ft 387 kts 167°
2026-04-25 15:44 55.23799 13.08163 20599 ft 391 kts 171°
2026-04-25 15:44 55.21096 13.08878 21209 ft 394 kts 172°
2026-04-25 15:44 55.18368 13.09550 21809 ft 398 kts 172°
2026-04-25 15:44 55.15613 13.10233 22402 ft 401 kts 172°